Erie, PA

8:44 AM EDT on September 29, 2016 (GMT -0400)
Erie International

Weather History for KERI - April, 2014

Change the Weather History Date:

Friday, April 11, 2014

  Actual Average Record
Temperature  
Mean Temperature 48 °F 46 °F  
Max Temperature 55 °F 54 °F 85 °F (1945)
Min Temperature 41 °F 37 °F 17 °F (1909)
Degree Days  
Heating Degree Days 17 20  
Month to date heating degree days 233 238  
Since 1 July heating degree days 6193 5514  
Cooling Degree Days 0 0  
Month to date cooling degree days 0 0  
Year to date cooling degree days 0 1  
Moisture  
Dew Point 43 °F    
Average Humidity 77    
Maximum Humidity 100    
Minimum Humidity 54    
Precipitation  
Precipitation 0.02 in 0.12 in 0.85 in (1940)
Month to date precipitation 1.65 1.28  
Year to date precipitation 10.73 9.57  
Snow  
Snow 0.00 in 0.10 in - ()
Month to date snowfall T 2.1  
Since 1 July snowfall 137.2 99.8  
Snow Depth 0.00 in    
Sea Level Pressure  
Sea Level Pressure 30.00 in    
Wind  
Wind Speed 4 mph (WSW)    
Max Wind Speed 14 mph    
Max Gust Speed 20 mph    
Visibility 4 miles    
Events Fog , Rain    
T = Trace of Precipitation, MM = Missing Value Source: NWS Daily Summary

Daily Weather History Graph

Daily Weather History Graph

Search for Another Location

Airport or City:

Trip Planner

Search our weather history database for the weather conditions in past years. The results will help you decide how hot, cold, wet, or windy it might be!

Date:

Astronomy

Apr. 11, 2014 Rise Set
Actual Time 6:46 AM EDT 7:57 PM EDT
Civil Twilight 6:17 AM EDT 8:26 PM EDT
Nautical Twilight 5:43 AM EDT 9:00 PM EDT
Astronomical Twilight 5:07 AM EDT 9:37 PM EDT
Moon 4:33 PM EDT (4/11) 4:44 AM EDT (4/11)
Length of Visible Light 14h 08m
Length of Day
13h 10m
Waxing Gibbous, 87% of the Moon is Illuminated
Apr 11
Waxing Gibbous
Apr 15
Full
Apr 22
Last Quarter
Apr 29
New
May 6
First Quarter

Hourly Weather History & Observations

Time (EDT) Temp. Windchill Dew Point Humidity Pressure Visibility Wind Dir Wind Speed Gust Speed Precip Events Conditions
12:10 AM 51.8 °F - 50.0 °F 94% 29.91 in 3.0 mi SW 5.8 mph - 0.05 in Rain Rain
12:30 AM 51.8 °F - 50.0 °F 94% 29.92 in 4.0 mi WSW 6.9 mph - 0.08 in Rain Rain
12:51 AM 53.1 °F - 50.0 °F 89% 29.93 in 6.0 mi WSW 10.4 mph - 0.10 in Rain Light Rain
1:51 AM 52.0 °F - 48.9 °F 89% 29.93 in 7.0 mi West 9.2 mph - 0.03 in   Overcast
2:48 AM 48.2 °F - 46.4 °F 93% 29.95 in 4.0 mi West 10.4 mph - N/A   Overcast
2:51 AM 48.9 °F - 46.9 °F 93% 29.95 in 4.0 mi West 9.2 mph - N/A   Overcast
3:07 AM 48.2 °F - 46.4 °F 93% 29.95 in 4.0 mi West 8.1 mph - N/A   Overcast
3:51 AM 48.2 °F - 46.4 °F 93% 29.96 in 4.0 mi WSW 5.8 mph - N/A   Mostly Cloudy
4:51 AM 48.9 °F - 46.9 °F 93% 29.98 in 3.0 mi SW 3.5 mph - N/A   Overcast
5:03 AM 48.2 °F - 46.4 °F 93% 29.97 in 1.8 mi Calm Calm - N/A   Overcast
5:11 AM 48.2 °F - 44.6 °F 87% 29.98 in 0.5 mi Calm Calm - N/A Fog Fog
5:36 AM 46.4 °F 44.3 °F 44.6 °F 93% 29.98 in 0.5 mi South 4.6 mph - N/A Fog Fog
5:39 AM 46.4 °F 44.3 °F 44.6 °F 93% 29.98 in 1.2 mi South 4.6 mph - N/A   Scattered Clouds
5:51 AM 46.0 °F - 44.1 °F 93% 29.99 in 1.5 mi Calm Calm - N/A   Scattered Clouds
6:07 AM 46.4 °F 45.2 °F 44.6 °F 93% 29.99 in 0.8 mi SSW 3.5 mph - N/A   Mostly Cloudy
6:16 AM 46.4 °F 44.3 °F 44.6 °F 93% 29.99 in 2.0 mi South 4.6 mph - N/A   Mostly Cloudy
6:25 AM 46.4 °F 45.2 °F 44.6 °F 93% 29.99 in 1.8 mi South 3.5 mph - N/A   Scattered Clouds
6:41 AM 46.4 °F 43.5 °F 44.6 °F 93% 29.99 in 2.5 mi SSE 5.8 mph - N/A   Mostly Cloudy
6:51 AM 46.9 °F - 45.0 °F 93% 29.99 in 2.5 mi South 3.5 mph - N/A   Scattered Clouds
7:23 AM 44.6 °F 43.1 °F 44.6 °F 100% 29.99 in 0.5 mi North 3.5 mph - N/A Fog Fog
7:34 AM 42.8 °F 40.1 °F 41.0 °F 93% 29.99 in 0.2 mi NW 4.6 mph - N/A Fog Fog
7:47 AM 42.8 °F - 39.2 °F 87% 30.00 in 0.2 mi Calm Calm - N/A Fog Fog
7:51 AM 42.1 °F - 42.1 °F 100% 30.01 in 0.2 mi Calm Calm - N/A Fog Fog
7:57 AM 44.6 °F - 42.8 °F 93% 30.01 in 0.2 mi Calm Calm - N/A Fog Fog
8:16 AM 46.4 °F - 44.6 °F 93% 30.01 in 1.0 mi Calm Calm - N/A   Overcast
8:20 AM 46.4 °F - 44.6 °F 93% 30.01 in 2.0 mi Calm Calm - N/A   Overcast
8:39 AM 42.8 °F 40.1 °F 39.2 °F 87% 30.02 in 0.8 mi NNW 4.6 mph - N/A   Overcast
8:46 AM 42.8 °F 41.1 °F 39.2 °F 87% 30.02 in 1.2 mi NNW 3.5 mph - N/A   Overcast
8:51 AM 42.1 °F - 39.9 °F 92% 30.03 in 0.8 mi Calm Calm - N/A   Overcast
8:59 AM 42.8 °F - 41.0 °F 93% 30.03 in 0.2 mi Calm Calm - N/A Fog Fog
9:51 AM 42.8 °F 41.1 °F 42.8 °F 100% 30.04 in 0.2 mi NNW 3.5 mph - N/A Fog Fog
10:40 AM 42.8 °F 40.1 °F 41.0 °F 93% 30.02 in 0.2 mi SSE 4.6 mph - N/A Fog Fog
10:51 AM 44.1 °F - 43.0 °F 96% 30.04 in 0.5 mi Calm Calm - 0.00 in Fog , Rain Light Rain
10:56 AM 44.6 °F - 44.6 °F 100% 30.02 in 1.0 mi Calm Calm - 0.00 in Rain Light Rain
11:03 AM 44.6 °F - 44.6 °F 100% 30.03 in 1.8 mi Calm Calm - 0.00 in   Overcast
11:05 AM 46.4 °F - 44.6 °F 93% 30.02 in 2.0 mi Calm Calm - 0.00 in   Overcast
11:09 AM 46.4 °F - 44.6 °F 93% 30.02 in 3.0 mi Calm Calm - 0.00 in   Overcast
11:51 AM 48.0 °F - 43.0 °F 83% 30.02 in 10.0 mi Calm Calm - 0.00 in   Overcast
12:51 PM 50.0 °F - 44.1 °F 80% 30.03 in 9.0 mi NW 6.9 mph - N/A   Partly Cloudy
1:51 PM 53.1 °F - 42.1 °F 66% 30.02 in 10.0 mi Calm Calm - N/A   Clear
2:51 PM 53.1 °F - 39.9 °F 61% 30.02 in 10.0 mi NW 8.1 mph - N/A   Clear
3:51 PM 51.8 °F - 39.2 °F 62% 30.01 in 10.0 mi NW 8.1 mph - N/A   Clear
4:51 PM 52.0 °F - 39.9 °F 63% 30.02 in 10.0 mi NW 4.6 mph - N/A   Clear
5:51 PM 53.1 °F - 39.0 °F 59% 30.03 in 10.0 mi WNW 4.6 mph - N/A   Clear
6:51 PM 53.1 °F - 37.9 °F 57% 30.02 in 10.0 mi WNW 4.6 mph - N/A   Clear
7:51 PM 48.9 °F - 37.0 °F 64% 30.04 in 10.0 mi WNW 3.5 mph - N/A   Clear
8:51 PM 46.9 °F - 37.9 °F 71% 30.05 in 10.0 mi Calm Calm - N/A   Clear
9:51 PM 44.1 °F 42.5 °F 37.9 °F 79% 30.07 in 10.0 mi South 3.5 mph - N/A   Clear
10:51 PM 46.0 °F 42.5 °F 37.9 °F 73% 30.07 in 10.0 mi South 6.9 mph - N/A   Clear
11:51 PM 48.0 °F - 39.0 °F 71% 30.06 in 10.0 mi South 6.9 mph - N/A   Partly Cloudy